Regional Weather Roundup
Issued by NWS San Angelo, TX

Home | Current Version | Previous Version | Text Only | Print | Product List | Glossary On
Versions: 1 2 3 4 5 6 7 8 9 10 11 12 13 14 15 16 17 18 19 20 21 22 23 24 25 26 27 28 29 30 31 32 33 34 35 36 37 38 39 40 41 42 43 44 45 46 47 48 49 50
000
ASUS44 KSJT 271210
RWRSJT
WEST CENTRAL TEXAS REGIONAL WEATHER ROUNDUP
NATIONAL WEATHER SERVICE SAN ANGELO TX
700 AM CDT FRI MAR 27 2015

NOTE: "FAIR" INDICATES FEW OR NO CLOUDS BELOW 12,000 FEET WITH NO
SIGNIFICANT WEATHER AND/OR OBSTRUCTIONS TO VISIBILITY.

TXZ049-054-064>066-071>073-076>078-098-099-113-114-127-128-139-140-
154-155-168>170-271300
...LOCATIONS ACROSS WEST CENTRAL TEXAS...

CITY           SKY/WX    TMP DP  RH WIND       PRES   REMARKS
SAN ANGELO     CLEAR     41  31  67 W7        30.18R WCI  36
ABILENE        CLEAR     49  28  44 SW5       30.15R
DYESS AFB      CLEAR     46  31  56 W5        30.14R
JUNCTION       CLEAR     35  32  88 CALM      30.21R
SWEETWATER     CLEAR     48  28  44 SW15      30.19R
BROWNWOOD      PTCLDY    36  36 100 CALM      30.17S
COLEMAN        SUNNY     46  33  59 W3        30.16R
SONORA         CLEAR     34  32  93 MISG      30.25R
OZONA          FAIR      36  32  87 CALM      30.24S
BRADY          CLEAR     39  32  75 W7        30.15F WCI  34
$$

TEXAS PANHANDLE/OKLAHOMA PANHANDLE

CITY           SKY/WX    TMP DP  RH WIND       PRES   REMARKS
AMARILLO       CLEAR     44  22  41 NE6       30.18R
BORGER         CLEAR     43  25  49 NE7       30.18R WCI  39
CANADIAN       MOCLDY    48  32  53 CALM      30.17S
DALHART        CLEAR     37  26  64 N6        30.19R WCI  32
DUMAS          SUNNY     34  23  63 N5        30.19R WCI  30
GUYMON         NOT AVBL
HEREFORD       SUNNY     32  26  79 CALM      30.19R
PAMPA          MOSUNNY   38  27  65 NE7       30.19R WCI  32
PERRYTON       MOCLDY    42  31  65 CALM      30.18R
$$

SOUTHERN PANHANDLE/SOUTH PLAINS/ROLLING PLAINS

CITY           SKY/WX    TMP DP  RH WIND       PRES   REMARKS
LUBBOCK        PTCLDY    36  23  59 W6        30.16R WCI  31
SNYDER         CLEAR     40  29  63 SW7       30.19R WCI  36
CHILDRESS      CLEAR     42  24  49 N6        30.16R WCI  38
SEMINOLE       SUNNY     42  27  56 W10       30.19F WCI  35
$$

PERMIAN BASIN

CITY           SKY/WX    TMP DP  RH WIND       PRES   REMARKS
MIDLAND        CLEAR     41  33  73 MISG      30.20R
ODESSA         CLEAR     40  31  70 W8        30.21R WCI  34
WINK           CLEAR     38  31  76 E5        30.18F WCI  34
$$

FAR WEST/SOUTHWEST MOUNTAINS/TRANS PECOS

CITY           SKY/WX    TMP DP  RH WIND       PRES   REMARKS
ALPINE         SUNNY     44  31  61 SW9       30.32R WCI  39
DRYDEN           N/A     48  36  63 W8        30.21S
EL PASO        PTCLDY    49  29  46 CALM      30.24R
FORT STOCKTON  CLEAR     43  33  68 SW12      30.21R WCI  37
GUADALUPE PASS PTCLDY    45  26  47 W16       30.27R WCI  38
MARFA          CLEAR     28  25  86 N7        30.30R WCI  21
PECOS          SUNNY     36  33  88 S3        30.20S
$$

DALLAS/FORT WORTH METROPLEX

CITY           SKY/WX    TMP DP  RH WIND       PRES   REMARKS
DFW AIRPORT    PTCLDY    45  36  70 SW7       30.10R
FTW MEACHAM    CLEAR     47  36  65 SW5       30.11R
DAL-EXECUTIVE  CLEAR     49  35  58 W6        30.10R
GRAND PRAIRIE  CLEAR     46  37  71 MISG      30.13
ADDISON        PTCLDY    48  36  61 SW3       30.12R
MESQUITE       NOT AVBL
LANCASTER      SUNNY     42  32  68 W3        30.13R
$$

NORTH CENTRAL TEXAS

CITY           SKY/WX    TMP DP  RH WIND       PRES   REMARKS
SHRMAN/DENISON MOSUNNY   44  40  86 SW6       30.11R
GAINESVILLE    CLEAR     43  36  75 NW10      30.13R WCI  37
BRIDGEPORT     SUNNY     44  36  72 W5        30.13R
DENTON         CLEAR     43  36  76 CALM      30.10S
WAXAHACHIE     SUNNY     45  37  71 W7        30.13R
GRANBURY         N/A     41  36  81 CALM      30.14S
$$

WESTERN NORTH TEXAS

CITY           SKY/WX    TMP DP  RH WIND       PRES   REMARKS
WICHITA FALLS  PTCLDY    40  34  79 N7        30.13R WCI  35
VERNON         MOSUNNY   39  29  66 N6        30.14R WCI  35
BRECKENRIDGE   SUNNY     46  32  57 SW6       30.13S
COMANCHE       CLEAR     49  33  54 W8        30.14S
$$

CENTRAL AND SOUTH CENTRAL TEXAS

CITY           SKY/WX    TMP DP  RH WIND       PRES   REMARKS
AUSTIN/BERGSTM CLEAR     43  37  79 SW6       30.18R WCI  39
WACO           CLEAR     40  37  89 SW8       30.14R WCI  34
HILLSBORO      SUNNY     42  37  82 CALM      30.13R
TEMPLE         CLEAR     39  32  75 W3        30.14R
KILLEEN-GRAY   CLEAR     51  33  50 VRB1      30.14R
FORT HOOD      CLEAR     46  35  64 W8        30.14R
GEORGETOWN     CLEAR     41  36  81 W7        30.16R WCI  36
LAGO VISTA     FAIR      43  38  80 W8        30.18R WCI  38
SAN MARCOS     CLEAR     43  36  75 W8        30.19R WCI  38
NEW BRAUNFELS  CLEAR     44  36  73 NW6       30.18R
RANDOLPH AFB   CLEAR     42  36  76 NW3       30.19S
SAN ANTONIO    CLEAR     46  35  65 CALM      30.19S
STINSON        CLEAR     44  38  79 CALM      30.19R
PLEASANTON     NOT AVBL
LA GRANGE      CLEAR     44  40  88 CALM      30.15R
GIDDINGS       SUNNY     44  37  78 W5        30.19R
$$

EAST TEXAS

CITY           SKY/WX    TMP DP  RH WIND       PRES   REMARKS
PARIS          NOT AVBL
CLARKSVILLE    NOT AVBL
TYLER          CLEAR     41  35  79 CALM      30.10R
LONGVIEW       CLEAR     38  34  85 S3        30.10R
PALESTINE      SUNNY     37  35  95 CALM      30.14R
NACOGDOCHES    PTCLDY    36  32  87 CALM      30.12R
$$

TEXAS HILL COUNTRY AND EDWARDS PLATEAU

CITY           SKY/WX    TMP DP  RH WIND       PRES   REMARKS
LLANO          SUNNY     37  34  87 CALM      30.22R
HORSESHOE BAY    N/A     38  37  94 CALM      30.18R
KERRVILLE      CLEAR     36  34  92 NW3       30.20F
FREDERICKSBRG  CLEAR     35  32  88 CALM      30.19S
ROCKSPRINGS    NOT AVBL
HONDO          CLEAR     38  34  85 NW7       30.23R WCI  33
UVALDE         SUNNY     40  35  83 CALM      30.23R
DEL RIO        CLEAR     44  40  85 CALM      30.21S
$$

SOUTHEAST TEXAS

CITY           SKY/WX    TMP DP  RH WIND       PRES   REMARKS
COLLEGE STN    CLEAR     44  39  82 CALM      30.14R
CALDWELL       SUNNY     43  39  87 CALM      30.18R
CROCKETT       SUNNY     39  39 100 CALM      30.15R
BRENHAM        CLEAR     44  40  87 CALM      30.16R
HUNTSVILLE     CLEAR     41  38  89 CALM      30.13R
CONROE         CLEAR     38  36  92 CALM      30.14R
HOUSTON BUSH   CLEAR     46  41  82 W5        30.14R
HOUSTON HOBBY  CLEAR     48  41  76 SW3       30.14R
PERLAND        CLEAR     46  42  86 CALM      30.15R
WHARTON        SUNNY     46  42  87 W3        30.17R
$$

THE UPPER TEXAS COAST

CITY           SKY/WX    TMP DP  RH WIND       PRES   REMARKS
ORANGE         SUNNY     45  43  93 CALM      30.14R
PORT ARTHUR    CLEAR     44  44 100 W3        30.12R
GALVESTON      CLEAR     55  43  63 N7        30.13F
ANGLETON       CLEAR     43  43 100 CALM      30.15R
BAY CITY       SUNNY     46  45  97 CALM      30.16R
$$

TEXAS COASTAL BEND, RIO GRANDE PLAINS DEEP SOUTH TEXAS

CITY           SKY/WX    TMP DP  RH WIND       PRES   REMARKS
VICTORIA       CLEAR     45  41  86 W6        30.18R
BEEVILLE       FAIR      49  40  69 NW7       30.20R
ROCKPORT       CLEAR     51  42  71 NW6       30.18R
PORT ARANSAS   SUNNY     52  48  84 N3        30.18S
PORT LAVACA    NOT AVBL
CORPUS CHRISTI PTCLDY    49  45  86 W5        30.20R
KINGSVILLE NAS PTCLDY    48  45  89 W7        30.21R
COTULLA        FAIR      46  41  82 N3        30.23R
LAREDO         CLEAR     48  46  93 NW3       30.26R
BROWNSVILLE    PTCLDY    54  50  86 NW6       30.21R
PORT ISABEL    MOCLDY    55  50  83 NW6       30.19S
HEBBRONVILLE   NOT AVBL
MCALLEN        MOCLDY    55  50  83 CALM      30.24R
WESLACO        PTCLDY    52  48  86 NW5       30.23R
FALFURRIAS     MOSUNNY   49  44  85 NW5       30.22R
EDINBURG       MOSUNNY   51  47  86 W5        30.23S
$$


USA.gov is the U.S. government's official web portal to all federal, state and local government web resources and services.